Location: Madrid
(40.4000°N, 3.6830°W)
Time: 18:29:39
(UTC+01:00)

ISS - Pass Details

Date: 21 January 2020
Orbit: 415 x 422 km, 51.6° (Epoch: 23 January)

Event Time Altitude Azimuth Distance (km) Brightness Sun altitude
Rises 20:42:47 0° 257° (WSW) 2,362 1.3 -27.1°
Reaches altitude 10° 20:45:02 10° 268° (W) 1,500 0.0 -27.5°
Enters shadow 20:46:29 20° 286° (WNW) 1,024 -1.1 -27.8°
